星链-35034 (STARLINK-35034)

导读

STARLINK-35034是美国SpaceX公司星链星座的一员,于2025年8月31日发射入轨。作为低轨宽带通信卫星,它采用平板设计搭配单块太阳电池阵,以氪工质霍尔推进器实现轨道维持与离轨,具备自主避撞能力。它依托Ku/Ka波段通信与光学星间链路,旨在为全球偏远欠发达地区提供高速低延迟宽带互联网服务,设计寿命约5至7年,退役后会坠入大气层烧毁。

Basic Information
目录编号:
65431
目录名称:
STARLINK-35034
国际标识:
2025-192AD
轨道中心:
EARTH
卫星名称:
星链-35034
卫星全名:
星链-35034 (STARLINK-35034)
卫星状态:
在轨 (已飞行286 天)
发射日期:
2025-08-31 UTC
国别 :
美国 (US)
星等 :
--
Orbit Information
数据来源 国际轨道数据 AOE轨道数据
星历时间 2026-06-13T14:11:17+0800
11小时前
查看轨道信息
2026-06-07T05:00:00+0800
6天前
查看轨道信息
半长轴 6853.357km 6853.386km
偏心率 0.0001278 0.0001181
轨道倾角 53.157° 53.161°
近地点辐角 88.372° 60.500°
升交点赤经 148.614° 178.265°
平近点角 271.743° 38.884°
近地点 474.344km 474.439km
远地点 476.096km 476.059km
周期 94.105分钟 94.106分钟
每日圈数 15.301986 15.301887
Detailed Information
固有亮度:
5
最大亮度:
2.5
卫星平台:
Starlink V1.0
覆盖范围:
全球
运营商:
太空探索技术公司
运营商所在国:
美国
制造商(研发单位):
太空探索技术公司
制造商所在国:
美国
使用方式:
暂无
Satellite Introduction
Starlink 计划是 SpaceX 推出的全球卫星互联网项目,通过发射低轨道卫星,为全球尤其是偏远地区提供高速、低延迟的互联网服务。自 2019 年起,Starlink 已部署数千颗卫星,旨在缩小全球数字鸿沟,推动互联网普及。该项目还为军事、航空等行业提供通信支持,带来广泛经济效益。
2D Orbit Map
3D Orbit Map
Orbit Altitude Analysis Chart
Orbit Inclination Analysis Chart
Orbit Comprehensive Analysis Chart
View Comprehensive Chart